AEHF-6 (USA 298)

Last updated on Mon Sep 07 2026 00:03:01 GMT+0000 (Coordinated Universal Time)

1 45465U 20022B 26249.54779480 -.00000313 00000+0 00000+0 0 9993 2 45465 2.3804 302.3270 0042321 10.8070 7.4664 1.00272612 23832
UTC large
Height (km)
Speed (km/s)
/
Latitude / Longitude
Inclination (degrees)
Orbital Period (minutes)
Azimuth
Elevation
Range (km)
Doppler Factor

Next 0 passes for location: London (51.5072 / 0.1276)

No passes found over London.
AEHF-6 (USA 298)